Regional Weather Roundup
Issued by NWS

Home | Current Version | Previous Version | Text Only | Print | Product List | Glossary On
Versions: 1 2 3 4 5 6 7 8 9 10 11 12 13 14 15 16 17 18 19 20 21 22 23 24 25 26 27 28 29 30 31 32 33 34 35 36 37 38 39 40 41 42 43 44 45 46 47 48 49 50
000
ASUS43 KMKX 300300
RWRWI

WISCONSIN REGIONAL WEATHER ROUNDUP
NATIONAL WEATHER SERVICE MILWAUKEE/SULLIVAN WI
1000 PM CDT THU SEP 29 2016

NOTE: "FAIR" INDICATES FEW OR NO CLOUDS BELOW 12,000 FEET WITH NO
SIGNIFICANT WEATHER AND/OR OBSTRUCTIONS TO VISIBILITY.

WIZ001-002-006>008-014>016-023>028-300400-
NORTHWEST WISCONSIN

CITY           SKY/WX    TMP DP  RH WIND       PRES   REMARKS
SUPERIOR ARPT  CLOUDY    53  53  97 NE8       30.47R
ASHLAND        CLOUDY    53  52  96 NE9       30.47S
HAYWARD        CLOUDY    51  49  92 NE8       30.45S
SIREN          CLEAR     54  50  87 NE3       30.43S
CUMBERLAND     CLEAR     54  50  87 NE9       30.42S
RICE LAKE      CLEAR     55  51  87 CALM      30.44R
CHETEK         NOT AVBL
LADYSMITH      CLEAR     55  53  93 NE5       30.44S
EAU CLAIRE     NOT AVBL
MENOMONIE      CLEAR     55  52  88 N6        30.40R
NEW RICHMOND   CLEAR     54  51  89 NE5       30.41R
OSCEOLA        CLEAR     52  52 100 CALM      30.43S
$$

WIZ003>005-009-010-017-018-300400-
NORTH CENTRAL WISCONSIN

CITY           SKY/WX    TMP DP  RH WIND       PRES   REMARKS
MANITOWISH WTR NOT AVBL
ARBOR VITAE    CLEAR     55  53  94 NE3       30.45S
WOODRUFF       CLEAR     55  53  94 NE3       30.45S
RHINELANDER    CLEAR     53  53 100 NE5       30.44S
EAGLE RIVER    CLEAR     50  50 100 CALM      30.45S
LAND O LAKES   CLEAR     51  50  98 N5        30.48S
PHILLIPS       CLEAR     51  51  99 NE5       30.44R
TOMAHAWK       CLEAR     53  51  91 NE3       30.43S
MEDFORD        CLEAR     55  55 100 NE7       30.41R
MERRILL        CLEAR     56  54  94 N6        30.42S
$$

WIZ029-030-035-036-043>047-300400-
CENTRAL WISCONSIN

CITY           SKY/WX    TMP DP  RH WIND       PRES   REMARKS
WAUSAU         CLEAR     57  50  77 NE6       30.39R
MOSINEE        CLEAR     55  52  88 N10       30.40R
MARSHFIELD     CLEAR     59  52  77 NE9       30.38R
STEVENS POINT  CLEAR     54  49  86 NE5       30.38S
WAUPACA        PTCLDY    60  49  68 N3        30.37R
WAUTOMA        CLEAR     59  49  69 N8        30.35S
WISC RAPIDS    CLEAR     57  52  83 NE8       30.38S
CAMP DOUGLAS   NOT AVBL
$$

WIZ011>013-019>022-031-037>040-048>050-300400-
NORTHEAST WISCONSIN

CITY           SKY/WX    TMP DP  RH WIND       PRES   REMARKS
ANTIGO         CLEAR     53  48  84 CALM      30.41S
SHAWANO        CLEAR     61  53  75 NE12      30.39R
OCONTO         NOT AVBL
STURGEON BAY   CLEAR     62  54  74 E8        30.37F
GREEN BAY      PTCLDY    61  59  93 NE16      30.35S
MANITOWOC      NOT AVBL
APPLETON       CLEAR     59  52  77 NE13G20   30.34R
CLINTONVILLE   PTCLDY    55  50  82 NE3       30.37S
OSHKOSH        CLEAR     61  52  72 NE12      30.33S
$$

WIZ032>034-041-042-053>061-300400-
SOUTHWEST WISCONSIN

CITY           SKY/WX    TMP DP  RH WIND       PRES   REMARKS
LA CROSSE      PTCLDY    57  54  89 NW8       30.35R
SPARTA         CLEAR     51  51 100 CALM      30.36S
VIROQUA        CLEAR     55  51  87 NE5       30.35S
BOSCOBEL       CLEAR     52  50  93 CALM      30.33S
PRAIRIE DU CHI CLEAR     58  50  76 CALM      30.33R
PLATTEVILLE    CLEAR     55  49  79 N5        30.31S
$$

WIZ056-057-062-063-064-067-068-300400-
SOUTH CENTRAL WISCONSIN

CITY           SKY/WX    TMP DP  RH WIND       PRES   REMARKS
REEDSBURG      NOT AVBL
BARABOO/DELLS  CLEAR     58  45  62 NE6       30.32F
LONE ROCK      NOT AVBL
MINERAL POINT  CLEAR     59  45  58 N7        30.31S
MADISON        CLEAR     57  49  74 N9        30.30S
MIDDLETON      CLEAR     58  50  74 NE10      30.31S
WATERTOWN      MOCLDY    58  55  92 N6        30.29S
MONROE         CLEAR     59  52  77 N10       30.28S
JANESVILLE     NOT AVBL
$$

WIZ051-052-058>065-066-070>072-300400-
SOUTHEAST WISCONSIN

CITY           SKY/WX    TMP DP  RH WIND       PRES   REMARKS
MILWAUKEE      CLOUDY    61  57  87 NE9       30.27S
WAUKESHA       CLEAR     57  54  88 N7        30.29F
MILWAUKEE/TIMM MOCLDY    61  54  77 NE10G21   30.28F
RACINE         LGT RAIN  60  57  89 MISG      30.27F
BURLINGTON     CLOUDY    60  55  81 N7        30.26F
KENOSHA        CLOUDY    60  58  92 NE6       30.26F
FOND DU LAC    CLEAR     59  54  83 NE10      30.32F
SHEBOYGAN      CLOUDY    61  53  75 NE16      30.32R
WEST BEND      MOCLDY    64  63  94 NE9G17    30.30S
JUNEAU         CLEAR     57  53  86 N9        30.31F
$$

LSZ147-162-300400-
LAKE SUPERIOR

STATION/POSITION TIME  TEMP    WIND        PRES    WAVE
                       AIR SEA DIR/SP/G            HT/PER
                 (UTC) (F)     (DEG/KT/KT) (MB)    (FT/S)
W MID LAKE BUOY  0050   54 55   90/  8/  8 1032.1R   2/ 5
DEVILS ISLAND    0200   52      30/  8/  8 1032.6R
SAXON HARBOR     0200   51     190/  2/  3 1031.5R
$$

LMZ867-665-643>646-300400-
LAKE MICHIGAN

STATION/POSITION TIME  TEMP    WIND        PRES    WAVE
                       AIR SEA DIR/SP/G            HT/PER
                 (UTC) (F)     (DEG/KT/KT) (MB)    (FT/S)
CHAMBERS ISLAND  0200   62      10/ 18/ 22 1028.1
S GREEN BAY BUOY 0200   63 63   50/ 19/ 21 1027.4S
N MID LAKE BUOY  0150   65 65   90/ 17/ 19 1028.1R   3/ 4
NORTHPORT PIER   0200   65      70/ 11/ 14 1028.8S
SISTER BAY       0208   61      40/  4/  6   N/A
KEWAUNEE LAKESHO 0200   62      50/ 11/ 15 1026.9R
SHEBOYGAN LAKESH 0200   62      30/ 20/ 21 1026.1R
PORT WASHINGTON  0240   61      40/ 11/ 16 1026.4R
ATWATER BUOY     0200   57 53   20/ 12/ 16 1024.8F
MILWAUKEE LAKESH 0210   61      10/ 16/ 20   N/A
S MID LAKE BUOY  0150   63 68   60/ 19/ 23 1023.5R   6/ 6
KENOSHA   LAKESH 0200   64      60/ 18/ 21 1024.0F
$$

TC  - TEMPERATURE IN CELSIUS
VSB - VISIBILITY IN STATUTE MILES
WCI - WIND CHILL INDEX
HX  - HEAT INDEX





USA.gov is the U.S. government's official web portal to all federal, state and local government web resources and services.